| time (UTC) | temp F | wind direction | speed MPH | gust MPH | rain 1hr in | rain 24hr in | rain mn in | humidity % | barometer mb |
| 20260503203039 | 60 | 127 | 3.0 | 11.0 | 0.00 | 0.00 | 0.00 | 74 | 1014.0 |
| 20260503201538 | 59 | 119 | 3.0 | 11.0 | 0.00 | 0.00 | 0.00 | 75 | 1014.0 |
| 20260503200038 | 59 | 144 | 2.0 | 11.0 | 0.00 | 0.00 | 0.00 | 74 | 1014.0 |
| 20260503194536 | 59 | 178 | 1.0 | 8.0 | 0.00 | 0.00 | 0.00 | 75 | 1014.2 |
| 20260503193047 | 60 | 7 | 2.0 | 10.0 | 0.00 | 0.00 | 0.00 | 74 | 1014.2 |
| 20260503191538 | 61 | 187 | 4.0 | 10.0 | 0.00 | 0.00 | 0.00 | 71 | 1014.1 |
| 20260503190042 | 61 | 184 | 3.0 | 10.0 | 0.00 | 0.00 | 0.00 | 71 | 1014.2 |
| 20260503184538 | 59 | 93 | 3.0 | 10.0 | 0.00 | 0.00 | 0.00 | 76 | 1014.1 |
| 20260503183050 | 59 | 131 | 1.0 | 8.0 | 0.00 | 0.00 | 0.00 | 75 | 1014.0 |
| 20260503181538 | 60 | 0 | 1.0 | 7.0 | 0.00 | 0.00 | 0.00 | 74 | 1014.1 |
| 20260503180036 | 59 | 124 | 2.0 | 7.0 | 0.00 | 0.00 | 0.00 | 76 | 1013.9 |
| 20260503174542 | 59 | 122 | 2.0 | 8.0 | 0.00 | 0.00 | 0.00 | 79 | 1013.9 |
| 20260503173036 | 57 | 302 | 2.0 | 8.0 | 0.00 | 0.00 | 0.00 | 81 | 1014.0 |
| 20260503171537 | 57 | 0 | 1.0 | 7.0 | 0.00 | 0.00 | 0.00 | 81 | 1013.9 |
| 20260503081536 | 52 | 327 | 0.0 | 5.0 | 0.00 | 0.00 | 0.00 | 90 | 1012.8 |
| 20260503071538 | 52 | 0 | 1.0 | 9.0 | 0.00 | 0.00 | 0.00 | 91 | 1012.7 |
| 20260503054541 | 52 | 198 | 1.0 | 9.0 | 0.00 | 0.00 | 0.00 | 90 | 1012.9 |
| 20260503053043 | 52 | 340 | 1.0 | 7.0 | 0.00 | 0.00 | 0.00 | 90 | 1013.1 |
| 20260503051544 | 52 | 0 | 2.0 | 7.0 | 0.00 | 0.00 | 0.00 | 90 | 1013.1 |
| 20260503050041 | 52 | 0 | 0.0 | 5.0 | 0.00 | 0.00 | 0.00 | 89 | 1013.1 |
| 20260503044541 | 52 | 0 | 2.0 | 9.0 | 0.00 | 0.00 | 0.00 | 89 | 1013.1 |
| 20260503043037 | 52 | 238 | 3.0 | 8.0 | 0.00 | 0.00 | 0.00 | 89 | 1012.9 |
| 20260503041543 | 52 | 0 | 0.0 | 4.0 | 0.00 | 0.00 | 0.00 | 89 | 1012.9 |
| 20260503040044 | 52 | 160 | 2.0 | 8.0 | 0.00 | 0.00 | 0.00 | 89 | 1012.9 |
| 20260503034538 | 52 | 162 | 0.0 | 7.0 | 0.00 | 0.00 | 0.00 | 89 | 1012.9 |
| 20260503033046 | 52 | 282 | 1.0 | 10.0 | 0.00 | 0.00 | 0.00 | 89 | 1012.4 |
| 20260503031535 | 52 | 150 | 1.0 | 9.0 | 0.00 | 0.00 | 0.00 | 89 | 1012.2 |
| 20260503030035 | 53 | 316 | 2.0 | 8.0 | 0.00 | 0.00 | 0.00 | 89 | 1012.0 |
| 20260503024542 | 53 | 0 | 2.0 | 8.0 | 0.00 | 0.00 | 0.00 | 88 | 1012.1 |
| 20260503023040 | 53 | 351 | 2.0 | 11.0 | 0.00 | 0.00 | 0.00 | 87 | 1012.1 |
| 20260503021536 | 53 | 261 | 2.0 | 9.0 | 0.00 | 0.00 | 0.00 | 87 | 1012.0 |
| 20260503020036 | 54 | 86 | 2.0 | 9.0 | 0.00 | 0.00 | 0.00 | 86 | 1012.1 |
| 20260503014535 | 54 | 245 | 2.0 | 11.0 | 0.00 | 0.00 | 0.00 | 85 | 1012.2 |
| 20260503013046 | 54 | 0 | 0.0 | 6.0 | 0.00 | 0.00 | 0.00 | 84 | 1012.2 |
| 20260503011538 | 55 | 193 | 2.0 | 7.0 | 0.00 | 0.00 | 0.00 | 83 | 1012.4 |
| 20260503010049 | 55 | 253 | 3.0 | 10.0 | 0.00 | 0.00 | 0.00 | 82 | 1012.4 |
| 20260503004536 | 55 | 208 | 2.0 | 13.0 | 0.00 | 0.00 | 0.00 | 81 | 1012.5 |
| 20260503003035 | 56 | 307 | 2.0 | 8.0 | 0.00 | 0.00 | 0.00 | 81 | 1012.5 |
| 20260503001543 | 55 | 266 | 1.0 | 15.0 | 0.00 | 0.00 | 0.00 | 81 | 1012.7 |
| 20260503000041 | 56 | 219 | 5.0 | 12.0 | 0.00 | 0.00 | 0.00 | 78 | 1012.7 |
| 20260502234539 | 57 | 0 | 0.0 | 9.0 | 0.00 | 0.00 | 0.00 | 78 | 1012.8 |
| 20260502233036 | 57 | 302 | 3.0 | 10.0 | 0.00 | 0.00 | 0.00 | 76 | 1012.9 |
| 20260502231543 | 57 | 359 | 0.0 | 10.0 | 0.00 | 0.00 | 0.00 | 78 | 1013.2 |
| 20260502230038 | 57 | 314 | 3.0 | 12.0 | 0.00 | 0.00 | 0.00 | 77 | 1013.3 |
| 20260502224540 | 56 | 139 | 4.0 | 13.0 | 0.00 | 0.00 | 0.00 | 80 | 1013.6 |
| 20260502223037 | 57 | 183 | 3.0 | 8.0 | 0.00 | 0.00 | 0.00 | 78 | 1013.8 |
| 20260502221536 | 57 | 0 | 3.0 | 7.0 | 0.00 | 0.00 | 0.00 | 77 | 1014.0 |
| 20260502220044 | 57 | 18 | 2.0 | 10.0 | 0.00 | 0.00 | 0.00 | 78 | 1014.2 |
| 20260502214551 | 58 | 1 | 2.0 | 7.0 | 0.00 | 0.00 | 0.00 | 76 | 1014.2 |
| 20260502213039 | 58 | 76 | 3.0 | 9.0 | 0.00 | 0.00 | 0.00 | 75 | 1014.2 |
| 20260502211536 | 58 | 335 | 2.0 | 9.0 | 0.00 | 0.00 | 0.00 | 75 | 1014.2 |
| 20260502210046 | 58 | 310 | 4.0 | 13.0 | 0.00 | 0.00 | 0.00 | 73 | 1014.5 |
| 20260502204543 | 58 | 63 | 2.0 | 13.0 | 0.00 | 0.00 | 0.00 | 76 | 1014.6 |